Miscellaneous Local Product
Issued by NWS Hastings, NE

Home | Current Version | Previous Version | Graphics & Text | Print | Product List | Glossary On
Versions: 1 2 3 4 5 6 7 8 9 10 11 12 13 14 15 16 17 18 19 20 21 22 23 24 25 26 27 28 29 30 31 32 33 34 35 36 37 38 39 40 41 42 43 44 45 46 47 48 49 50
000
AXUS43 KGID 291502
MISGRI

GID CWA HOURLY WEATHER ROUNDUP
NATIONAL WEATHER SERVICE HASTINGS NE
1000 AM CDT SUN MAR 29 2015

NOTE: "FAIR" INDICATES FEW OR NO CLOUDS BELOW 12,000 FEET WITH NO
SIGNIFICANT WEATHER AND/OR OBSTRUCTIONS TO VISIBILITY.

...SOUTH CENTRAL NEBRASKA...

CITY           SKY/WX    TMP DP  RH WIND       PRES   REMARKS
GRAND ISLAND   MOSUNNY   56  34  43 NW36G45   30.03R
HASTINGS       PTSUNNY   56  34  43 NW25G35   30.03R
KEARNEY        MOSUNNY   55  34  44 NW29G41   30.06R
ORD            CLOUDY    53  32  44 NW40G53   30.02R HAZE
YORK           PTSUNNY   55  37  50 NW29G36   29.98R
AURORA         PTSUNNY   57  35  44 NW32G41   30.01R
LEXINGTON      SUNNY     55  32  41 NW35G48   30.10R
HOLDREGE       PTSUNNY   55  32  41 N23G36    30.07R
HEBRON         MOSUNNY   59  35  40 NW12      30.00R

...NEBRASKA PANHANDLE...

CITY           SKY/WX    TMP DP  RH WIND       PRES   REMARKS
CHADRON        SUNNY     50  29  44 NW26G38   30.22R
ALLIANCE       SUNNY     48  28  46 NW35G43   30.21R
SCOTTSBLUFF    SUNNY     49  31  49 NW25G32   30.26R
SIDNEY         SUNNY     48  28  46 N38G49    30.23R

...WESTERN AND NORTH CENTRAL NEBRASKA...

CITY           SKY/WX    TMP DP  RH WIND       PRES   REMARKS
VALENTINE      MOSUNNY   49  32  52 NW36G51   30.09R HAZE
AINSWORTH      CLOUDY    49  33  54 NW37G46   30.08R
ONEILL         CLOUDY    48  36  62 NW38G51   30.01R
BROKEN BOW     MOSUNNY   54  33  45 NW32G51   30.05R
IMPERIAL         N/A     53  28  38 N33G40    30.18R
NORTH PLATTE   SUNNY     53  28  38 NW30G41   30.13R
MCCOOK         SUNNY     59  29  31 NW25G35   30.13R

...EASTERN NEBRASKA...

CITY           SKY/WX    TMP DP  RH WIND       PRES   REMARKS
NORFOLK        CLOUDY    52  38  58 NW25G41   29.92R
SO SIOUX CITY  LGT RAIN  55  36  48 NW32G53   29.84R
TEKAMAH        MOSUNNY   58  37  45 W26G33    29.89R
COLUMBUS       MOSUNNY   57  37  47 NW39G46   29.95S
ALBION         CLOUDY    53  36  52 NW29G46   29.98R
OMAHA EPPLEY   CLOUDY    51  39  63 W12       29.92R
OFFUTT AFB     CLOUDY    51  40  64 W9G20     29.92R
MILLARD        PTSUNNY   52  40  63 W8        29.93R
LINCOLN        CLOUDY    57  38  48 NW10      29.97R
NEBRASKA CITY  CLOUDY    50  38  64 SW16      29.94R
BEATRICE       PTSUNNY   54  42  63 W9        29.98R
FALLS CITY     PTSUNNY   49  40  71 SW7       29.95F

...NORTHERN KANSAS...

CITY           SKY/WX    TMP DP  RH WIND       PRES   REMARKS
GOODLAND       SUNNY     53  24  32 NW36G44   30.19R
HILL CITY      PTSUNNY   60  24  25 NW32G40   30.10R
NORTON         SUNNY     57  19  23 NW29G37   30.10R
PHILLIPSBURG     N/A     63  27  25 NW30G39   30.07R HAZE
SMITH CENTER   SUNNY     59  28  31 NW22G37   30.05S
BELOIT         SUNNY     63  39  42 NW12      30.01R
HAYS           CLOUDY    61  37  41 N17G24    30.07R
RUSSELL        PTSUNNY   63  35  35 N21       30.03R
CONCORDIA      PTSUNNY   57  42  57 NW9       30.00R
SALINA         CLOUDY    60  45  57 NW6       29.99R
TOPEKA         PTSUNNY   51  41  68 S8        29.98R



USA.gov is the U.S. government's official web portal to all federal, state and local government web resources and services.